CSN3455 ZGSZ-ZUCK

Flight info

Callsign CSN3455
Flight time N/A
Altitude 34100
Route MIPAG1 MIPAG W21 NUSLA W22 TEPID W24 OSNOV G586 QP B330 ELKAL W179 SUMUN W3 AGTIS/K0859S1070 W3 ASIPO/K0863S1040 W678 SEGDA SEGDD2
Aircraft A320/M-SDE3FGHIRWY/LB1

Departure

Time 2026-04-27 06:49
Airport Shenzhen Bao'an International Airport (ZGSZ)

Arrival

Time N/A
Airport Chongqing Jiangbei International Airport (ZUCK)
Time Latitude Longitude Altitude Speed Heading
2026-04-27 06:42 22.64118 113.80119 15 ft 0 kts 256°
2026-04-27 06:42 22.64108 113.80085 16 ft 13 kts 242°
2026-04-27 06:42 22.64016 113.80054 15 ft 15 kts 180°
2026-04-27 06:43 22.63910 113.80032 15 ft 16 kts 226°
2026-04-27 06:43 22.63856 113.79917 15 ft 18 kts 242°
2026-04-27 06:43 22.63796 113.79792 16 ft 20 kts 242°
2026-04-27 06:43 22.63751 113.79693 15 ft 13 kts 244°
2026-04-27 06:44 22.63772 113.79619 15 ft 12 kts 334°
2026-04-27 06:44 22.63842 113.79582 15 ft 10 kts 334°
2026-04-27 06:44 22.63901 113.79550 15 ft 10 kts 334°
2026-04-27 06:44 22.63977 113.79511 15 ft 15 kts 334°
2026-04-27 06:45 22.64083 113.79455 15 ft 20 kts 334°
2026-04-27 06:45 22.64219 113.79380 15 ft 24 kts 334°
2026-04-27 06:45 22.64384 113.79289 16 ft 29 kts 333°
2026-04-27 06:45 22.64574 113.79184 16 ft 33 kts 332°
2026-04-27 06:46 22.64785 113.79061 16 ft 36 kts 332°
2026-04-27 06:46 22.65000 113.78951 16 ft 32 kts 333°
2026-04-27 06:46 22.65162 113.78860 16 ft 23 kts 333°
2026-04-27 06:46 22.65312 113.78779 16 ft 25 kts 333°
2026-04-27 06:47 22.65448 113.78704 16 ft 11 kts 333°
2026-04-27 06:47 22.65490 113.78649 16 ft 9 kts 273°
2026-04-27 06:47 22.65463 113.78584 16 ft 13 kts 243°
2026-04-27 06:47 22.65380 113.78522 16 ft 19 kts 163°
2026-04-27 06:48 22.65174 113.78640 16 ft 64 kts 153°
2026-04-27 06:48 22.64574 113.78959 18 ft 125 kts 155°
2026-04-27 06:48 22.63646 113.79453 43 ft 169 kts 155°
2026-04-27 06:48 22.62524 113.80048 392 ft 191 kts 155°
2026-04-27 06:49 22.61206 113.80563 749 ft 214 kts 168°
2026-04-27 06:49 22.59678 113.80857 1285 ft 228 kts 171°
2026-04-27 06:49 22.58093 113.81088 2157 ft 230 kts 172°
2026-04-27 06:49 22.56524 113.81307 3092 ft 231 kts 172°
2026-04-27 06:50 22.54886 113.81542 3904 ft 237 kts 172°
2026-04-27 06:50 22.53238 113.81786 4740 ft 241 kts 172°
2026-04-27 06:50 22.51560 113.81939 5542 ft 244 kts 186°
2026-04-27 06:50 22.49949 113.81344 6316 ft 249 kts 214°
2026-04-27 06:51 22.48792 113.79955 7116 ft 253 kts 242°
2026-04-27 06:51 22.48368 113.78100 7932 ft 258 kts 263°
2026-04-27 06:51 22.48222 113.76194 8768 ft 258 kts 263°
2026-04-27 06:51 22.48087 113.74221 9568 ft 262 kts 267°
2026-04-27 06:52 22.48434 113.72278 10278 ft 270 kts 292°
2026-04-27 06:52 22.49576 113.70632 10858 ft 286 kts 317°
2026-04-27 06:52 22.51422 113.69674 11077 ft 314 kts 344°
2026-04-27 06:52 22.53638 113.69155 11264 ft 338 kts 346°
2026-04-27 06:53 22.56025 113.68630 11417 ft 361 kts 347°
2026-04-27 06:53 22.58567 113.68263 11778 ft 376 kts 358°
2026-04-27 06:53 22.61200 113.68530 12363 ft 383 kts
2026-04-27 06:53 22.63842 113.69026 12997 ft 387 kts
2026-04-27 06:54 22.66509 113.69515 13644 ft 390 kts
2026-04-27 06:54 22.69203 113.69998 14217 ft 394 kts
2026-04-27 06:54 22.71912 113.70483 14783 ft 397 kts
2026-04-27 06:54 22.74647 113.70977 15357 ft 400 kts
2026-04-27 06:55 22.77400 113.71476 15939 ft 402 kts
2026-04-27 06:55 22.80167 113.71978 16507 ft 405 kts
2026-04-27 06:55 22.82952 113.72484 17066 ft 407 kts
2026-04-27 06:55 22.85775 113.72847 17603 ft 408 kts 358°
2026-04-27 06:56 22.88602 113.72621 18156 ft 407 kts 346°
2026-04-27 06:56 22.91309 113.71792 18626 ft 404 kts 335°
2026-04-27 06:56 22.93808 113.70399 19067 ft 402 kts 323°
2026-04-27 06:56 22.95984 113.68514 19522 ft 401 kts 312°
2026-04-27 06:57 22.97795 113.66231 19966 ft 400 kts 304°
2026-04-27 06:57 22.99497 113.63828 20413 ft 402 kts 304°
2026-04-27 06:57 23.01210 113.61414 20867 ft 404 kts 304°
2026-04-27 06:57 23.02909 113.59018 21293 ft 407 kts 304°
2026-04-27 06:58 23.04634 113.56581 21739 ft 408 kts 304°
2026-04-27 06:58 23.08114 113.51653 22597 ft 413 kts 304°
2026-04-27 06:58 23.09871 113.49176 23016 ft 416 kts 306°
2026-04-27 06:59 23.11944 113.46940 23416 ft 424 kts 319°
2026-04-27 06:59 23.14488 113.45269 23759 ft 433 kts 333°
2026-04-27 06:59 23.17392 113.44306 24088 ft 442 kts 347°
2026-04-27 06:59 23.20480 113.44149 24429 ft 451 kts
2026-04-27 07:00 23.23580 113.44836 24743 ft 459 kts 15°
2026-04-27 07:00 23.26612 113.45965 25058 ft 462 kts 15°
2026-04-27 07:00 23.29659 113.47119 25369 ft 464 kts 16°
2026-04-27 07:00 23.32732 113.48218 25680 ft 464 kts 10°
2026-04-27 07:01 23.35898 113.48767 25996 ft 460 kts 359°
2026-04-27 07:01 23.39082 113.48645 26306 ft 455 kts 347°
2026-04-27 07:01 23.42146 113.47880 26629 ft 450 kts 337°
2026-04-27 07:01 23.45000 113.46536 26935 ft 446 kts 327°
2026-04-27 07:02 23.47568 113.44672 27235 ft 442 kts 316°
2026-04-27 07:02 23.49817 113.42409 27523 ft 441 kts 312°
2026-04-27 07:02 23.52028 113.40073 27797 ft 443 kts 312°
2026-04-27 07:02 23.54244 113.37728 28070 ft 445 kts 312°
2026-04-27 07:03 23.56463 113.35359 28342 ft 447 kts 311°
2026-04-27 07:03 23.58673 113.32978 28644 ft 448 kts 311°
2026-04-27 07:03 23.60888 113.30582 28938 ft 449 kts 311°
2026-04-27 07:03 23.63111 113.28178 29209 ft 451 kts 311°
2026-04-27 07:04 23.65300 113.25728 29480 ft 450 kts 307°
2026-04-27 07:04 23.67150 113.22983 29731 ft 448 kts 298°
2026-04-27 07:04 23.68564 113.19976 30018 ft 445 kts 291°
2026-04-27 07:04 23.69826 113.16898 30335 ft 444 kts 291°
2026-04-27 07:05 23.71097 113.13832 30660 ft 443 kts 292°
2026-04-27 07:05 23.72369 113.10781 30985 ft 441 kts 292°
2026-04-27 07:05 23.73640 113.07727 31253 ft 442 kts 292°
2026-04-27 07:05 23.74897 113.04716 31518 ft 442 kts 294°
2026-04-27 07:06 23.76495 113.01835 31790 ft 446 kts 304°
2026-04-27 07:06 23.77867 113.00096 31978 ft 450 kts 311°
2026-04-27 07:06 23.81166 112.97322 32378 ft 457 kts 326°
2026-04-27 07:06 23.84083 112.95902 32676 ft 464 kts 338°
2026-04-27 07:07 23.87176 112.94875 33013 ft 463 kts 339°
2026-04-27 07:07 23.90256 112.93862 33345 ft 462 kts 339°
2026-04-27 07:07 23.92292 112.93190 33564 ft 461 kts 339°
2026-04-27 07:07 23.95367 112.92173 33863 ft 460 kts 339°
2026-04-27 07:08 23.98437 112.91152 34003 ft 460 kts 339°
2026-04-27 07:08 24.04538 112.89122 34026 ft 457 kts 339°
2026-04-27 07:09 24.10619 112.87096 34024 ft 457 kts 339°
2026-04-27 07:09 24.16705 112.85062 34031 ft 457 kts 339°
2026-04-27 07:10 24.22805 112.83033 34032 ft 458 kts 339°
2026-04-27 07:10 24.28899 112.81006 34026 ft 458 kts 339°
2026-04-27 07:11 24.34960 112.78992 34027 ft 457 kts 339°
2026-04-27 07:11 24.41027 112.76901 34024 ft 454 kts 334°
2026-04-27 07:11 24.43791 112.75287 34025 ft 448 kts 321°
2026-04-27 07:12 24.46145 112.73088 34018 ft 442 kts 310°
2026-04-27 07:12 24.48009 112.70422 34030 ft 438 kts 298°
2026-04-27 07:12 24.49306 112.67427 34022 ft 434 kts 287°
2026-04-27 07:12 24.50074 112.63453 34022 ft 432 kts 275°
2026-04-27 07:13 24.50179 112.62342 34016 ft 432 kts 275°